SCP
0 0 1 0 0 0 0 0 0 0 0 0 0 0 0 0 0 0 0 0 0 0 0 0 0 0 0 0 0 0 0 0 0 0 0 0 0 0 0 0 0 0 0
0 0 0 0 0 0 0 0 0 0 0 0 0 0 0 0 0 0 0 0 0 0 0 0 0 0 0 0 0 0 0 0 0 0 0 0 0 0 0 0 0 0 0
0 0 0 0 0 0 0 0 0 0 0 0 0 0 0 0 0 0 0 0 0 0 0 0 0 0 0 0 0 0 0 0 0 0 0 0 0 0 0 0 0 0 0
0 0 0 0 0 0 0 0 0 0 0 0 0 0 0 0 0 0 0 0 0 0 0 0 0 0 0 0 0 0 0 0 0 0 0 0 0 0 0 0 0 0 0
0 0 0 1 0 0 0 0 0 0 0 0 0 0 0 0 0 0 0 0 0 0 0 0 0 0 0 0 0 0 0 0 0 0 0 0 0 0 0 0 0 0 0
0 0 1 1 0 0 0 0 0 0 0 0 0 0 0 0 0 0 0 0 0 0 0 0 0 0 0 0 0 0 0 0 0 0 0 0 0 1 1 0 0 0 0
1 1 1 1 1 0 0 0 0 0 0 0 0 0 0 0 0 0 0 0 0 0 0 0 0 0 0 0 0 0 0 0 0 0 0 0 1 1 1 1 0 0 0
1 1 1 1 1 0 0 0 0 0 0 0 0 1 1 0 1 1 1 1 1 1 1 1 1 1 1 1 1 1 1 0 0 0 0 1 1 2 1 1 1 1 0
2 2 1 1 1 1 0 0 1 1 1 1 1 1 1 1 1 1 1 1 1 1 1 1 1 1 1 1 1 1 1 1 0 0 0 1 2 2 2 2 1 1 1
2 2 1 1 1 1 1 1 1 1 1 1 1 1 1 1 1 1 1 1 1 1 1 1 1 1 1 1 1 1 1 1 1 0 0 1 2 3 3 2 2 1 1
2 1 1 1 1 1 1 1 1 1 1 1 1 1 1 1 1 2 2 2 2 2 2 2 2 2 2 2 2 2 2 1 1 1 1 2 3 3 3 3 2 1 1
1 1 2 2 2 1 2 2 2 2 2 2 2 2 2 2 1 1 2 3 3 3 3 2 2 2 2 2 2 2 2 1 1 1 2 3 4 4 4 3 2 2 1
2 2 2 3 3 2 2 2 2 2 3 3 2 3 3 2 2 2 2 3 3 3 3 2 2 2 2 2 2 2 2 2 2 2 3 4 5 5 4 3 2 2 2
2 2 3 4 4 3 3 3 2 2 3 3 3 3 3 3 3 2 2 3 3 3 3 3 3 3 3 3 2 3 3 2 3 3 4 5 5 5 4 3 3 2 2
3 3 5 5 5 4 3 3 3 3 3 3 4 4 4 4 4 3 3 3 3 3 3 3 3 3 4 4 3 3 3 3 3 4 5 5 5 5 4 3 3 2 2
4 5 6 6 6 5 4 4 3 3 3 4 4 4 4 4 4 4 3 3 3 3 3 3 3 3 4 4 3 3 3 3 3 4 5 6 5 5 4 4 3 3 2
5 7 8 8 7 6 5 5 4 4 4 5 5 5 4 4 4 3 3 3 2 2 2 2 3 3 3 3 3 3 3 3 3 4 5 6 6 5 4 4 4 3 3
7 10 11 9 8 7 7 6 5 5 5 5 5 5 4 3 3 3 2 2 2 2 2 2 2 3 3 3 3 3 3 3 3 3 4 5 6 5 4 4 4 4 3
11 14 15 13 11 10 8 7 6 6 5 5 5 5 4 3 3 2 2 2 2 2 2 2 2 3 3 3 3 3 3 3 3 3 4 5 5 5 4 4 4 4 4
16 18 20 18 15 12 10 9 8 6 5 5 5 4 4 3 2 2 2 2 2 2 2 2 2 2 3 3 3 3 3 3 4 4 4 4 4 4 4 4 5 5 4
19 21 22 18 14 12 11 11 9 6 4 3 3 3 3 2 2 2 2 2 2 2 2 2 2 2 2 2 3 3 3 3 3 4 5 5 4 3 3 4 5 5 5
19 21 20 16 12 11 10 9 7 5 3 3 3 3 3 2 2 2 2 2 2 2 2 2 2 2 2 2 2 3 3 3 3 3 4 5 4 4 3 3 4 5 5
17 18 18 15 12 10 9 7 6 5 3 3 3 3 3 3 2 2 2 2 2 2 2 2 2 2 1 1 2 2 2 2 2 2 3 3 3 3 3 3 4 4 4
13 14 15 14 11 9 8 7 6 5 4 3 4 4 4 3 2 2 2 2 2 2 2 2 1 1 1 1 1 1 2 2 2 2 2 2 2 3 3 3 3 3 3
8 9 10 10 10 9 8 7 6 6 5 5 5 5 4 3 3 2 2 2 3 3 2 2 1 1 1 1 1 1 1 1 1 1 1 1 2 2 3 3 3 3 3
6 7 8 8 8 8 8 7 7 6 6 6 5 5 4 3 3 2 2 3 3 3 2 2 1 1 1 1 1 1 1 1 1 1 1 1 1 2 2 3 3 3 4
Wind_Speed
19 19 19 16 15 15 15 15 15 14 13 12 12 11 11 11 10 10 11 10 10 10 10 9 9 9 9 9 10 10 10 9 10 10 10 11 10 9 8 8 5 10 12
22 19 19 16 15 15 15 15 14 14 13 12 12 11 10 10 10 9 9 9 9 9 9 9 8 8 8 8 8 8 7 7 6 6 8 9 9 8 7 8 9 9 11
21 19 18 16 15 15 14 14 14 13 13 12 12 11 10 9 9 9 8 8 8 8 8 8 7 7 7 7 7 6 5 4 3 3 5 6 8 8 7 8 10 10 9
20 17 16 17 15 15 14 13 13 13 12 12 11 10 10 9 8 8 7 7 7 7 7 7 7 7 6 6 5 5 4 2 3 4 5 4 7 10 8 7 7 7 7
19 17 18 18 16 15 14 13 12 12 12 11 11 10 9 8 8 7 6 6 6 6 6 6 6 6 6 5 5 4 3 3 5 7 6 3 6 12 10 8 6 6 6
19 18 18 18 16 15 13 12 12 11 11 10 10 9 8 7 7 6 6 5 5 5 5 5 5 6 6 6 5 5 5 5 7 8 6 3 8 12 12 10 7 6 6
19 18 18 18 16 15 13 12 11 11 10 10 9 8 8 7 7 6 6 6 6 6 6 6 6 6 7 7 8 8 8 8 8 8 5 4 8 14 13 11 9 8 8
20 19 17 17 16 14 13 12 11 10 10 9 9 8 8 7 7 7 8 8 8 8 8 8 8 8 8 9 10 10 10 11 10 10 8 5 12 16 15 13 10 9 9
20 18 15 15 14 14 13 12 11 11 10 9 9 9 9 9 9 10 10 11 11 11 10 10 11 11 11 11 11 11 12 13 10 7 9 4 15 17 16 14 12 10 10
19 17 15 14 13 12 12 13 13 12 11 11 10 10 11 11 12 14 13 14 14 13 13 13 13 13 12 12 13 13 14 12 11 10 8 6 16 18 16 15 13 12 12
15 15 15 15 13 13 13 14 14 13 13 12 11 13 11 9 11 12 17 17 17 17 15 15 14 14 13 13 15 16 14 8 11 9 8 9 16 17 16 15 14 13 13
12 13 13 14 13 12 10 11 10 10 10 10 8 10 9 8 7 10 10 18 19 19 17 16 15 13 12 9 13 17 9 11 11 9 8 14 18 18 16 15 14 14 14
10 10 11 12 9 9 6 9 6 5 7 10 10 8 7 6 6 6 3 8 10 13 10 11 12 9 9 8 8 8 11 11 8 7 6 15 18 17 16 15 15 15 15
11 12 11 11 7 3 3 4 4 3 4 5 6 7 5 3 3 3 2 1 4 4 6 6 5 8 10 10 9 7 11 8 6 4 4 13 15 16 16 16 15 15 15
11 11 9 9 9 5 2 1 2 1 1 2 2 2 1 1 2 2 2 2 3 3 2 3 4 4 4 5 5 6 6 6 6 5 4 13 16 16 16 16 16 16 16
14 13 11 9 9 6 4 2 2 2 1 1 1 1 0 1 1 2 3 3 3 4 4 3 5 4 3 3 5 6 6 7 6 6 4 8 15 16 16 17 17 17 18
14 12 11 9 9 8 6 5 4 4 3 1 1 1 1 1 1 2 3 3 3 3 4 4 5 4 5 5 6 7 6 7 7 6 5 4 7 15 18 18 17 17 18
12 11 10 11 10 9 6 4 2 2 0 0 1 1 1 0 1 1 2 3 2 3 3 4 5 4 4 5 5 5 6 5 7 7 6 6 5 6 12 18 18 18 18
9 10 9 6 9 8 7 4 4 2 1 2 1 2 3 2 2 1 2 3 3 3 3 5 3 3 4 5 5 6 6 7 7 8 8 7 6 6 6 10 17 18 18
8 8 8 6 7 7 6 4 2 2 2 2 1 3 3 1 2 3 3 3 3 3 3 3 4 4 4 5 7 7 6 7 7 7 9 8 8 9 10 11 8 12 18
7 7 7 8 6 4 3 4 3 2 1 1 2 4 3 2 3 2 3 4 4 4 5 5 5 5 5 4 4 5 6 8 9 8 8 8 9 10 10 10 8 7 8
8 8 7 7 7 5 3 2 1 2 1 1 2 3 2 2 2 3 3 3 4 4 5 5 4 4 5 4 3 4 4 4 6 9 8 9 10 8 9 11 8 7 6
5 6 7 6 6 4 4 2 1 1 1 1 2 2 3 1 1 1 2 2 3 4 4 5 5 5 5 5 4 3 4 4 4 3 5 6 7 6 6 5 6 6 7
5 4 3 5 4 4 3 1 1 1 1 0 1 1 2 1 2 2 2 2 2 3 5 5 5 5 6 6 5 4 5 5 5 4 4 4 5 6 5 5 5 5 5
6 5 3 3 3 3 1 1 1 2 3 1 1 1 0 3 3 4 2 1 2 3 4 4 5 5 5 6 6 5 6 5 6 6 7 5 3 3 4 4 4 3 2
11 8 5 4 3 3 2 2 2 3 4 4 4 3 3 3 3 3 1 0 2 3 4 4 5 6 6 6 6 6 6 5 5 5 6 6 5 4 3 2 2 2 1
Wind_Direction
122 130 133 131 132 133 135 136 135 133 131 129 125 121 117 112 106 101 99 98 97 95 95 94 93 88 87 85 82 81 81 82 85 90 94 95 94 93 90 83 91 106 103
123 131 134 133 135 135 137 138 138 137 135 133 130 127 124 120 116 111 109 107 105 102 99 98 96 92 93 94 92 92 93 95 102 111 119 116 108 99 88 66 61 108 111
123 132 135 135 137 137 138 139 141 140 139 137 135 134 131 128 124 121 119 116 113 112 110 108 107 104 103 104 104 106 109 116 136 158 180 160 129 120 102 89 91 107 114
127 139 139 139 139 139 140 142 144 144 143 141 141 140 139 137 134 132 129 126 123 122 121 121 121 120 120 121 123 127 135 167 227 243 231 199 148 136 129 116 114 120 126
134 138 136 145 142 143 143 145 147 148 149 148 148 149 149 148 147 145 143 143 142 140 141 141 141 140 142 145 151 160 178 219 255 264 263 208 139 148 147 144 145 148 151
136 134 141 147 146 147 148 150 152 153 155 156 156 159 161 163 165 166 167 170 172 173 172 172 172 170 172 176 183 193 206 230 257 257 253 221 146 158 157 161 170 179 182
136 133 144 150 150 152 154 156 159 160 162 164 167 171 178 183 189 193 196 199 202 205 205 203 202 201 199 200 204 210 218 230 248 270 272 237 152 159 164 170 181 194 200
130 134 143 151 153 157 160 163 165 168 172 176 180 187 195 203 210 216 218 219 220 222 224 224 221 219 217 215 215 218 223 235 239 245 249 233 158 165 172 176 185 199 210
130 133 147 153 158 162 166 170 174 177 181 187 194 201 209 217 223 228 229 229 229 229 229 229 228 227 226 225 224 224 226 232 254 267 263 227 166 173 178 183 188 200 213
131 140 152 155 161 167 173 179 182 185 190 196 204 211 218 226 230 232 232 228 231 231 230 231 232 231 230 230 229 229 230 233 241 251 255 231 175 179 183 187 194 204 214
139 145 156 156 165 175 178 177 184 190 196 201 209 217 223 232 234 226 227 224 223 226 227 229 232 233 233 233 232 231 230 232 237 238 238 211 179 183 188 192 199 209 216
147 153 158 156 168 183 184 159 185 191 191 203 210 203 210 226 244 250 213 215 218 220 223 226 230 235 234 239 231 225 225 227 240 241 231 190 181 187 192 197 204 212 218
158 164 160 153 168 180 168 160 190 192 175 197 215 202 205 221 237 248 213 200 210 217 221 225 225 228 230 230 241 210 212 226 225 234 225 185 183 189 196 202 208 216 221
173 174 167 152 158 185 172 167 178 194 170 195 195 203 207 203 245 276 289 230 207 212 210 228 216 217 226 235 236 223 212 221 231 219 195 180 185 194 201 207 212 219 224
178 176 162 153 155 169 177 264 204 205 184 180 160 195 215 223 257 296 315 317 297 287 263 241 253 243 241 253 267 264 253 244 247 239 189 185 192 200 208 213 216 220 223
179 177 161 161 152 157 165 186 276 262 189 241 196 179 190 271 317 317 295 285 277 281 286 287 285 282 270 261 262 266 271 269 257 249 221 199 202 206 212 217 220 222 222
178 169 155 163 154 158 179 193 210 227 216 189 160 197 199 230 262 272 270 267 267 279 282 279 276 271 261 252 248 251 255 259 267 269 259 241 214 214 215 218 222 223 224
170 155 161 171 160 161 174 182 234 245 56 196 202 189 138 36 307 279 275 276 293 286 276 268 259 262 264 261 256 254 251 248 250 251 247 243 242 238 224 220 222 223 224
154 145 152 157 152 157 162 174 212 190 193 252 206 106 79 29 343 330 311 298 298 284 277 284 294 282 276 270 263 251 243 244 243 246 243 241 241 247 255 232 223 223 224
140 136 137 129 125 139 151 172 206 193 191 209 140 103 82 25 15 14 309 329 332 302 294 300 303 289 276 271 272 267 253 244 236 235 241 239 234 233 238 242 223 222 223
130 131 136 137 137 151 160 179 181 167 180 172 132 104 90 44 35 354 325 351 324 319 329 315 303 300 292 278 275 275 260 244 236 232 233 236 235 233 234 234 226 219 217
134 130 129 139 155 166 137 128 136 128 200 182 101 109 105 70 24 324 24 334 334 332 306 302 314 301 296 299 292 292 285 265 241 237 226 229 234 233 232 233 224 219 225
111 136 148 148 153 151 141 178 165 155 234 194 131 141 121 86 284 306 317 311 324 307 313 331 308 308 308 303 278 269 282 287 316 276 254 244 234 228 229 231 224 222 221
83 83 101 127 137 138 155 197 228 240 263 182 165 130 115 220 242 238 245 275 306 306 306 309 346 331 310 301 295 271 260 278 288 295 288 268 252 235 230 239 239 223 216
69 79 80 111 137 148 163 357 325 299 303 332 19 68 251 250 231 229 223 247 300 291 304 320 311 302 296 291 294 296 292 281 263 265 280 279 273 253 227 225 235 237 207
39 43 48 62 55 39 18 338 303 308 322 329 325 308 280 267 246 226 216 144 292 293 309 302 293 290 286 288 286 283 280 277 276 268 269 275 270 263 239 211 211 205 164